Regional Weather Roundup
Issued by NWS

Home | Current Version | Previous Version | Graphics & Text | Print | Product List | Glossary On
Versions: 1 2 3 4 5 6 7 8 9 10 11 12 13 14 15 16 17 18 19 20 21 22 23 24 25 26 27 28 29 30 31 32 33 34 35 36 37 38 39 40 41 42 43 44 45 46 47 48 49 50
000
ASUS45 KTFX 201119
RWRMT
MONTANA HOURLY WEATHER ROUNDUP
NATIONAL WEATHER SERVICE GREAT FALLS MT
519 AM MDT SAT SEP 20 2014

NOTE: "FAIR" INDICATES FEW OR NO CLOUDS BELOW 12000 FEET WITH NO
SIGNIFICANT WEATHER AND/OR OBSTRUCTIONS TO VISIBILITY.

* THESE STATIONS ARE NOT UNDER NWS QUALITY CONTROL. THEY DO NOT
   REPORT WEATHER SUCH AS PRECIPITATION OR FOG.

MTZ001>007-043-201200-
WEST OF THE DIVIDE
CITY           SKY/WX    TMP DP  RH WIND       PRES   REMARKS
KALISPELL      MOCLDY    43  41  93 NW3       30.18R
MISSOULA       MOCLDY    48  45  89 CALM      30.22R
BUTTE          CLEAR     39  36  89 CALM      30.28R
MULLAN PASS    CLEAR     48  43  83 S5        30.27S
* ESSEX        N/A       46  44  93 E2         N/A
* LINCOLN      N/A       43  39  86 N2G7       N/A
* LOOKOUT PASS N/A       44  43  96 S1         N/A
* POLSON       N/A       51  44  77 S1         N/A
* RONAN APT    MOCLDY    46  43  89 N/A        N/A
* SEELEY LAKE  N/A       37  35  92 N/A        N/A
* THOMP F APT  PTCLDY    48  38  68 NE3        N/A
$$

MTZ008-052>055-201200-
SOUTHWEST MONTANA
CITY           SKY/WX    TMP DP  RH WIND       PRES   REMARKS
BOZEMAN        CLEAR     39  37  93 S5        30.24R WCI  35
DILLON         CLEAR     46  39  77 S9        30.25R
W YELLOWSTONE  CLEAR     32  32 100 CALM      30.32R
* THREE FORKS  CLEAR     41  25  53 N/A        N/A
* BOULDER HILL N/A       50  37  61 SW6        N/A
* MONIDA PASS  N/A       42  38  86 SW5        N/A
* RAYNOLDS PAS N/A       42  40  93 NW1        N/A
* WHITEHALL    N/A       46  41  83 N6         N/A
* WISE RIVER   N/A       40  36  86 W6         N/A   WCI  36
$$

MTZ009>010-012-014-046-048-049-054-201200-
EAST SLOPES AND CENTRAL MONTANA
CITY           SKY/WX    TMP DP  RH WIND       PRES   REMARKS
CUT BANK       PTCLDY    48  39  71 W9        30.13R
GREAT FALLS    CLEAR     48  41  77 SW10      30.13R
HELENA         PTCLDY    54  43  67 CALM      30.18R
MALMSTROM AFB  CLEAR     50  43  77 SW12      30.14R
* CONRAD       PTCLDY    52  45  77 S5         N/A
* EAST GLACIER N/A       55  42  62 W17G24     N/A
* MONARCH      N/A       47  35  63 S4         N/A
* PENDROY      N/A       56  43  62 NW15       N/A
* ROGERS PASS  N/A       51  41  69 S3G9       N/A
* SAINT MARY   N/A       57  41  55 S7G13      N/A
* SWEET GRASS  N/A       52  42  69 VRB12G18    N/A
* WHITE SULPH  N/A       41  37  86 SE1        N/A
$$

MTZ011-013-016-021-035-040-045-047-050-051-201200-
NORTH CENTRAL MONTANA
CITY           SKY/WX    TMP DP  RH WIND       PRES   REMARKS
HAVRE          CLEAR     57  43  60 NW13G25   30.06R
LEWISTOWN      CLEAR     54  39  57 W9        30.14R
* CHINOOK      CLEAR     55  43  64 W10G20    30.06R
* FORT BENTON  CLEAR     52  41  66 SW5       30.11R
* CHESTER      N/A       50  40  69 N3         N/A
* DENTON       N/A       56  44  64 W14G19     N/A
* GEYSER       N/A       53  41  64 NW6        N/A
* JUDITH GAP   N/A       54  40  59 W8         N/A
* LOMA         N/A       52  41  66 W9         N/A
$$

MTZ017>020-022>027-061-062-201200-
NORTHEAST MONTANA
CITY           SKY/WX    TMP DP  RH WIND       PRES   REMARKS
GLASGOW        CLEAR     55  45  69 W12       29.93R
JORDAN         CLEAR     52  45  77 W7        29.99R
SIDNEY         FAIR      52  48  86 S7        29.90R
WOLF POINT     CLEAR     54  48  80 SW12      29.90R
* BEAVER HILL  N/A       54  46  74 SW14       N/A
* CIRCLE       N/A       51  46  83 W2         N/A
* LINDSAY DVD  N/A       57  45  64 W17G22     N/A
$$

MTZ028>042-056>058-201200-
SOUTHCENTRAL AND SOUTHEAST MONTANA
CITY           SKY/WX    TMP DP  RH WIND       PRES   REMARKS
BAKER          CLEAR     55  46  72 W10       29.98R
BILLINGS       MOCLDY    57  41  55 W12       30.13R
LIVINGSTON     PTCLDY    48  39  71 NW12      30.21R
MILES CITY     PTCLDY    55  45  69 NW7       30.00R
* LAUREL APT   PTCLDY    50  39  66 N/A        N/A
* ROUNDUP APT  MOCLDY    50  41  71 S7         N/A
* ALZADA       N/A       52  47  83 W4         N/A
* HYSHAM       N/A       53  43  69 W4         N/A
* LAME DEER    N/A       56  43  62 W8         N/A
* REED POINT   N/A       47  43  86 N/A        N/A
* ROSCOE HILL  N/A       52  35  52 W2         N/A
$$

REGIONAL REPORTS...DAKOTAS
CITY           SKY/WX    TMP DP  RH WIND       PRES   REMARKS
WILLISTON      CLOUDY    54  52  93 S5        29.85S
DICKINSON      FAIR      54  46  74 W10       29.89S
BEACH          N/A       55  48  77 SW15      29.92F
CROSBY         CLOUDY    55  54  96 NW12G22   29.86R
TIOGA          MOCLDY    50  50 100 SW6       29.87F
WATFORD CITY   MOCLDY    50  48  93 SW5       29.84F
BISMARCK       CLEAR     54  52  93 SW3       29.86F
GRAND FORKS    CLEAR     48  48 100 W6        29.77R
FARGO          CLEAR     52  48  86 CALM      29.80R
BUFFALO SD     PTCLDY    55  46  72 W13       29.92S
RAPID CITY     PTCLDY    55  46  72 NW5       30.03R
$$

REGIONAL REPORTS...WYOMING/IDAHO/WASHINGTON
CITY           SKY/WX    TMP DP  RH WIND       PRES   REMARKS
GILLETTE       CLEAR     57  46  67 W12       30.11R
SHERIDAN       CLEAR     54  45  72 W6        30.13R
CODY           PTCLDY   N/A N/A N/A N/A        N/A
YELLOWSTONE LA CLEAR     36  34  92 CALM      30.38R
SALMON         PTCLDY    45  39  80 CALM      30.23R
MULLAN PASS    CLEAR     48  43  83 S5        30.27S
SAND POINT     PTCLDY    46  46 100 CALM      30.15R
SPOKANE        PTCLDY    55  46  72 S5        30.13R
$$

REGIONAL REPORTS...ALBERTA
CITY           SKY/WX    TMP DP  RH WIND       PRES   REMARKS
CALGARY        FAIR      48  37  66 SW5       30.14R
LETHBRIDGE     CLEAR     50  39  66 NE5       30.13R
MEDICINE HAT   PTCLDY    46  45  96 SW6       30.07S
EDMONTON       N/A       45  34  65 W7        30.03R
WATERTON GATE  N/A       57  41  55 SW13G20    N/A
CARDSTON       N/A       55  45  69 W8         N/A
MILK RIVER     N/A       46  41  83 N9         N/A
$$

REGIONAL REPORTS...SASKATCHEWAN
CITY           SKY/WX    TMP DP  RH WIND       PRES   REMARKS
SWIFT CURRENT  MOCLDY    50  48  93 W7        29.98R
REGINA         MOCLDY    52  50  93 W8        29.85F
VAL MARIE      N/A       48  45  89 N3         N/A
ASSINIBOIA     N/A       52  50  93 N10        N/A
CORONACH       N/A       50  48  93 NW9        N/A

$$




USA.gov is the U.S. government's official web portal to all federal, state and local government web resources and services.